Aérodrome :
LOGIN :

S'inscrire | Disclaimer

   EN    FR    IT 

 










Légende :    VFR   VFR Marginal   IFR   IFR Intensif   IFR Très Intensif
Visi : 
Plafond : 
>= 8 km
>= 3000ft
5 à 8 km
1000 à 3000 ft
1500m à 5 km
500 à 1000 ft
800 à 1500m
200 à 500 ft
< 800m
< 200 ft
Symboles :   Orages  Brouillard  Fortes neiges  Fortes précipitations  Vent > 20 kt
SIGMETs :   Divers  Orages  Givrage  Turbulence  Onde Orograph.  Cendres Volcan.







- Altitude de l'aérodrome : 141 ft
- Code IATA : SKS


EKSP - Srydstrup Vojens

DERNIER METAR :
  • 270122Z 25005KT 9999 BKN040 09/08 Q1012

METARs EXPIRÉS :
  • 270020Z 26004KT 9999 FEW040 07/07 Q1012
  • 262350Z 26004KT 9999 FEW040 07/06 Q1012
  • 262320Z 25004KT 9999 FEW040 07/06 Q1012
  • 262250Z 27005KT 9999 FEW040 08/06 Q1012

TAF TAF EKSP
Valide du 27 à 00h jusqu'au 28 à 00h UTC


262322Z 2700/2724 29006KT 9999 FEW030 SCT200
BECMG 2715/2718 VRB05KT
Pas de NOTAMs connus pour ce terrain.



MET'MAP, la Météo Aéronautique d'un coup d'oeil ! - Copyright ORBIFLY Décembre 2007 - Disclaimer

ORBIFLY MET'MAP TEAM :

Programmation & Développement : Alexandra Zaïnal
Conception & Développement : Baudouin d'Aumeries
Co-Programmation & Développement : Marc-Olivier Méhu
Soutien technique & logistique : Manuel Goepfert

Contact : metmap@orbifly.com




SOURCES & CREDITS :

   NOAA